Measurements were made at the meteorological tower in Juelich (50.90 N / 6.40 E) at an altitude of 100 m,
"Instrument: Fast Greenhouse Gas Analyzer (FGGA), Los Gatos Inc.",
Responsible PI: Dr. Marc von Hobe; Forschungszentrum Juelich GmbH; IEK-7; email: m.von.hobe@fz-juelich.de,
NaN or negative numbers are fill values (i.e. no valid measurements were made at that time),
Uncertainties are given as the 1-sigma standard deviation over each 10 minute intervals. In each interval ~600 individual measurements are carried out so that the standard error of the mean is approximately sigma/sqrt(600).,
time_utc,CO2_ppm,stdev_CO2_ppm,CH4_ppm,stdev_CH4_ppm,H2O_ppm,stdev_H2O_ppm
"2016-05-01 00:05:00 000",407.556,0.877062,1.97346,0.00408266,6831.02,91.2537
"2016-05-01 00:15:00 000",408.175,0.909643,1.97253,0.00408472,6850.20,91.3633
"2016-05-01 00:25:00 000",408.774,0.883478,1.97230,0.00402213,6859.65,95.2611
"2016-05-01 00:35:00 000",408.483,0.819830,1.97517,0.00408942,6855.73,93.1790
"2016-05-01 00:45:00 000",408.704,0.907694,1.97336,0.00430647,6867.11,99.6284
"2016-05-01 00:55:00 000",409.056,0.887549,1.97097,0.00435613,6928.77,97.4444
"2016-05-01 01:05:00 000",409.048,0.890771,1.96840,0.00428738,6971.40,101.173
"2016-05-01 01:15:00 000",409.570,0.877007,1.96811,0.00415484,7002.48,99.0960
"2016-05-01 01:25:00 000",409.977,0.878111,1.97086,0.00445257,7015.05,103.432
"2016-05-01 01:35:00 000",410.309,0.885595,1.97305,0.00399473,7037.20,99.8431
"2016-05-01 01:45:00 000",410.299,0.870880,1.97467,0.00426139,7044.18,101.206
"2016-05-01 01:55:00 000",410.746,0.854571,1.97463,0.00412142,7058.37,102.875
"2016-05-01 02:05:00 000",411.525,0.876943,1.97239,0.00431466,7073.37,105.037
"2016-05-01 02:15:00 000",412.152,0.866989,1.97196,0.00442561,7077.77,112.557
"2016-05-01 02:25:00 000",412.667,0.916602,1.97071,0.00430709,7066.11,114.524
"2016-05-01 02:35:00 000",413.615,0.943939,1.97044,0.00412026,7084.18,111.823
"2016-05-01 02:45:00 000",414.069,0.888933,1.97026,0.00426200,7087.32,112.723
"2016-05-01 02:55:00 000",414.584,0.898819,1.97030,0.00412127,7088.69,110.481
"2016-05-01 03:05:00 000",415.061,0.922102,1.97259,0.00434882,7089.10,114.867
"2016-05-01 03:15:00 000",415.521,0.891368,1.97329,0.00444844,7100.99,112.761
"2016-05-01 03:25:00 000",415.728,0.892560,1.97448,0.00427761,7116.00,107.921
"2016-05-01 03:35:00 000",415.000,0.994039,1.97748,0.00461245,7082.19,115.314
"2016-05-01 03:45:00 000",413.658,0.951417,1.98179,0.00452762,7072.55,115.432
"2016-05-01 03:55:00 000",412.832,0.916233,1.98445,0.00432666,7099.56,117.773
"2016-05-01 04:05:00 000",412.689,0.907983,1.98511,0.00446588,7129.57,149.731
"2016-05-01 04:15:00 000",413.511,0.932677,1.98661,0.00470706,7203.67,137.492
"2016-05-01 04:25:00 000",413.959,1.05658,1.98736,0.00474800,7240.14,166.037
"2016-05-01 04:35:00 000",414.490,0.904575,1.98862,0.00449818,7294.30,143.246
"2016-05-01 04:45:00 000",414.729,0.918196,1.98916,0.00449253,7297.75,147.464
"2016-05-01 04:55:00 000",414.757,0.920189,1.98880,0.00458273,7318.41,142.017
"2016-05-01 05:05:00 000",414.854,0.891128,1.98793,0.00456349,7325.54,141.376
"2016-05-01 05:15:00 000",414.882,0.870926,1.98889,0.00447176,7320.56,138.928
"2016-05-01 05:25:00 000",414.628,0.893494,1.99182,0.00466738,7278.08,138.221
"2016-05-01 05:35:00 000",414.273,0.937791,1.99625,0.00544108,7258.44,138.570
"2016-05-01 05:45:00 000",414.195,0.895543,2.00233,0.00490865,7281.86,141.702
"2016-05-01 05:55:00 000",414.535,0.913473,2.00384,0.00440357,7293.33,132.893
"2016-05-01 06:05:00 000",414.653,0.919330,2.00396,0.00474239,7293.90,139.410
"2016-05-01 06:15:00 000",414.668,0.995123,2.00276,0.00498721,7289.51,127.018
"2016-05-01 06:25:00 000",414.523,0.897853,2.00468,0.00450774,7353.98,139.745
"2016-05-01 06:35:00 000",414.636,0.937646,2.00674,0.00453682,7397.78,137.932
"2016-05-01 06:45:00 000",414.393,0.956951,2.00910,0.00477473,7459.20,142.156
"2016-05-01 06:55:00 000",414.569,0.933542,2.01024,0.00460191,7553.81,151.681
"2016-05-01 07:05:00 000",414.749,0.929173,2.00847,0.00474903,7614.33,141.227
"2016-05-01 07:15:00 000",414.679,0.913867,2.00354,0.00462059,7640.06,135.309
"2016-05-01 07:25:00 000",414.299,0.943945,1.99704,0.00555223,7713.10,124.312
"2016-05-01 07:35:00 000",414.189,0.979647,1.99092,0.00482224,7789.68,130.251
"2016-05-01 07:45:00 000",414.265,0.899562,1.98272,0.00566075,7913.08,162.527
"2016-05-01 07:55:00 000",413.722,1.05215,1.97960,0.00438921,7604.48,260.416
"2016-05-01 08:05:00 000",413.884,0.846212,1.97753,0.00465460,7069.73,118.672
"2016-05-01 08:15:00 000",413.397,0.908680,1.97267,0.00464777,7131.47,97.9517
"2016-05-01 08:25:00 000",413.346,0.908490,1.97173,0.00414330,7260.56,113.742
"2016-05-01 08:35:00 000",412.957,0.914366,1.97142,0.00437376,7203.65,220.113
"2016-05-01 08:45:00 000",412.798,0.916080,1.96676,0.00414107,6809.76,166.013
"2016-05-01 08:55:00 000",412.035,0.842716,1.96283,0.00427402,6670.42,108.334
"2016-05-01 09:05:00 000",411.643,0.878376,1.96068,0.00419063,6823.77,99.9740
"2016-05-01 09:15:00 000",411.676,0.845237,1.96115,0.00418605,6594.17,141.613
"2016-05-01 09:25:00 000",410.900,0.914167,1.95866,0.00551464,6602.16,175.490
"2016-05-01 09:35:00 000",411.323,0.976234,1.96141,0.00417060,6504.25,125.553
"2016-05-01 09:45:00 000",411.228,0.862952,1.96457,0.00423774,6280.92,129.368
"2016-05-01 09:55:00 000",410.202,1.10237,1.96547,0.00413946,6599.40,150.367
"2016-05-01 10:05:00 000",409.137,1.00471,1.97026,0.00400855,6464.90,141.470
"2016-05-01 10:15:00 000",408.678,1.23300,1.96985,0.00431261,6291.70,112.304
"2016-05-01 10:25:00 000",407.694,0.891631,1.96290,0.00459763,6193.24,155.877
"2016-05-01 10:35:00 000",407.212,0.925538,1.95993,0.00419948,6209.21,105.525
"2016-05-01 10:45:00 000",405.586,0.856364,1.95788,0.00372248,6240.84,107.733
"2016-05-01 10:55:00 000",404.616,1.03405,1.95975,0.00436694,6319.24,130.656
"2016-05-01 11:05:00 000",403.902,1.04928,1.96235,0.00393342,6342.53,164.623
"2016-05-01 11:15:00 000",403.586,0.924545,1.96146,0.00415509,6445.07,115.329
"2016-05-01 11:25:00 000",403.939,0.877603,1.96080,0.00385678,6325.94,115.927
"2016-05-01 11:35:00 000",402.393,1.27768,1.95885,0.00401397,6455.12,99.6133
"2016-05-01 11:45:00 000",401.323,0.877765,1.95793,0.00413215,6452.86,109.948
"2016-05-01 11:55:00 000",400.307,1.04475,1.95973,0.00410257,6738.92,156.459
"2016-05-01 12:05:00 000",401.063,0.964662,1.95664,0.00432715,6455.00,119.254
"2016-05-01 12:15:00 000",401.066,1.17839,1.95662,0.00407668,6396.12,160.936
"2016-05-01 12:25:00 000",399.372,0.990284,1.95862,0.00433477,6541.81,118.277
"2016-05-01 12:35:00 000",400.370,0.948005,1.95374,0.00423660,6396.09,129.750
"2016-05-01 12:45:00 000",399.883,0.987254,1.95790,0.00492879,6468.06,120.938
"2016-05-01 12:55:00 000",399.582,0.988073,1.95745,0.00460551,6513.45,116.087
"2016-05-01 13:05:00 000",400.937,1.11928,1.95620,0.00431780,6422.49,127.413
"2016-05-01 13:15:00 000",399.595,0.906725,1.96338,0.00564161,6491.36,114.045
"2016-05-01 13:25:00 000",398.720,1.24286,1.96629,0.00629213,6657.20,199.480
"2016-05-01 13:35:00 000",399.747,0.979722,1.95886,0.00416199,6473.01,126.664
"2016-05-01 13:45:00 000",398.604,0.855603,1.96159,0.00441761,6605.76,137.703
"2016-05-01 13:55:00 000",398.357,0.914649,1.96126,0.00454445,6794.18,130.752
"2016-05-01 14:05:00 000",398.553,1.01869,1.96217,0.00442402,6609.81,121.315
"2016-05-01 14:15:00 000",398.211,1.15975,1.96177,0.00457499,6765.17,123.152
"2016-05-01 14:25:00 000",398.396,0.896797,1.96201,0.00463662,6737.38,126.230
"2016-05-01 14:35:00 000",398.623,0.921652,1.96397,0.00436051,6707.91,127.487
"2016-05-01 14:45:00 000",398.593,0.992514,1.96431,0.00457813,6739.00,130.108
"2016-05-01 14:55:00 000",398.136,1.14706,1.96566,0.00462933,6900.66,128.456
"2016-05-01 15:05:00 000",397.560,0.884901,1.96708,0.00432440,7109.47,117.842
"2016-05-01 15:15:00 000",397.730,0.927262,1.96939,0.00437365,7032.40,129.962
"2016-05-01 15:25:00 000",398.089,0.811019,1.96804,0.00427310,6907.66,117.337
"2016-05-01 15:35:00 000",399.333,1.02591,1.96891,0.00441713,6901.80,110.944
"2016-05-01 15:45:00 000",397.519,1.08687,1.97812,0.00582936,7187.75,155.543
"2016-05-01 15:55:00 000",397.870,1.22500,1.98229,0.00537382,7178.07,147.109
"2016-05-01 16:05:00 000",395.741,1.09799,1.99113,0.00471104,7404.92,166.919
"2016-05-01 16:15:00 000",394.847,0.935896,1.99382,0.00446676,7620.95,117.041
"2016-05-01 16:25:00 000",395.167,0.866774,1.99659,0.00467559,7643.42,127.576
"2016-05-01 16:35:00 000",394.635,0.868869,2.00007,0.00455494,7645.55,115.198
"2016-05-01 16:45:00 000",394.180,0.830076,2.00248,0.00437305,7657.96,109.518
"2016-05-01 16:55:00 000",394.321,0.818998,2.00353,0.00439680,7670.57,110.378
"2016-05-01 17:05:00 000",394.625,0.791511,2.00223,0.00453964,7647.17,106.978
"2016-05-01 17:15:00 000",394.871,0.785005,1.99705,0.00479805,7706.34,109.658
"2016-05-01 17:25:00 000",395.241,0.777166,1.99344,0.00433464,7587.56,107.072
"2016-05-01 17:35:00 000",395.237,0.769598,1.98968,0.00429741,7513.65,116.988
"2016-05-01 17:45:00 000",395.129,0.808641,1.98618,0.00419561,7433.13,94.8788
"2016-05-01 17:55:00 000",395.856,0.924439,1.98441,0.00429567,7367.97,107.110
"2016-05-01 18:05:00 000",395.863,0.817751,1.98363,0.00406432,7316.03,92.4354
"2016-05-01 18:15:00 000",395.907,0.768963,1.98341,0.00397311,7351.32,96.2261
"2016-05-01 18:25:00 000",395.602,0.804970,1.98274,0.00382788,7413.34,88.8997
"2016-05-01 18:35:00 000",395.719,0.759255,1.98289,0.00395481,7428.36,86.4146
"2016-05-01 18:45:00 000",395.891,0.775379,1.98251,0.00405277,7432.04,87.6310
"2016-05-01 18:55:00 000",396.131,0.793351,1.97918,0.00365045,7508.46,103.289
"2016-05-01 19:05:00 000",396.931,0.794578,1.97759,0.00394352,7445.99,96.8278
"2016-05-01 19:15:00 000",397.097,0.914619,1.97856,0.00436246,7423.32,105.542
"2016-05-01 19:25:00 000",396.480,0.797839,1.97713,0.00377587,7274.79,94.3758
"2016-05-01 19:35:00 000",397.326,0.805690,1.97923,0.00399588,7238.26,93.7863
"2016-05-01 19:45:00 000",397.876,0.845934,1.97978,0.00399293,7210.38,98.7728
"2016-05-01 19:55:00 000",398.666,0.830867,1.98194,0.00391282,7244.42,106.308
"2016-05-01 20:05:00 000",398.868,0.937376,1.98032,0.00449922,7266.43,104.685
"2016-05-01 20:15:00 000",400.768,0.806059,1.98264,0.00407049,7279.21,105.125
"2016-05-01 20:25:00 000",400.818,0.781819,1.98132,0.00401526,7285.31,105.875
"2016-05-01 20:35:00 000",400.835,1.02338,1.98561,0.00464029,7174.62,120.030
"2016-05-01 20:45:00 000",402.010,0.947625,1.99378,0.00490764,7235.06,125.368
"2016-05-01 20:55:00 000",402.363,1.19556,1.99758,0.00404494,7259.81,105.785
"2016-05-01 21:05:00 000",401.713,0.935309,1.99774,0.00387636,7215.29,114.620
"2016-05-01 21:15:00 000",401.448,0.872091,1.99740,0.00386112,6969.50,129.518
"2016-05-01 21:25:00 000",401.623,0.802242,1.99967,0.00395771,6805.58,119.068
"2016-05-01 21:35:00 000",402.171,0.770479,2.00110,0.00447253,6705.21,110.110
"2016-05-01 21:45:00 000",402.610,0.812187,1.99875,0.00492826,6629.23,110.677
"2016-05-01 21:55:00 000",402.856,0.855786,1.99421,0.00529038,6593.62,115.595
"2016-05-01 22:05:00 000",402.178,0.818664,1.98780,0.00495032,6354.09,137.454
"2016-05-01 22:15:00 000",402.835,0.834733,1.99015,0.00442065,6250.25,109.459
"2016-05-01 22:25:00 000",403.049,0.835925,1.98738,0.00513347,6180.18,117.226
"2016-05-01 22:35:00 000",402.339,0.766396,1.98137,0.00391269,6062.45,105.714
"2016-05-01 22:45:00 000",402.486,1.08371,1.98269,0.00575728,6049.33,105.722
"2016-05-01 22:55:00 000",402.994,1.35407,1.98704,0.00988123,6064.23,109.347
"2016-05-01 23:05:00 000",404.312,1.79857,1.98473,0.00617982,6023.75,107.418
"2016-05-01 23:15:00 000",409.246,1.49022,1.98585,0.00414737,6027.52,101.019
"2016-05-01 23:25:00 000",407.985,1.51118,1.98735,0.00459966,5994.69,103.371
"2016-05-01 23:35:00 000",408.047,0.942608,1.98704,0.00398612,5999.63,100.222
"2016-05-01 23:45:00 000",410.221,2.03937,1.99057,0.00410777,6022.58,104.679
"2016-05-01 23:55:00 000",413.290,0.982337,1.99417,0.00454636,6101.50,102.535
"2016-05-02 00:05:00 000",413.219,0.852293,1.99856,0.00588479,6072.75,92.7705
"2016-05-02 00:15:00 000",411.597,1.45893,2.03305,0.0264992,6078.37,101.446
"2016-05-02 00:25:00 000",411.429,0.940152,2.05154,0.0140485,6115.90,90.8917
"2016-05-02 00:35:00 000",411.313,0.962357,2.03473,0.00468902,6187.79,102.974
"2016-05-02 00:45:00 000",411.493,1.08604,2.03201,0.00479370,6178.18,96.0501
"2016-05-02 00:55:00 000",409.993,0.938351,2.02427,0.00475834,6059.28,86.3084
"2016-05-02 01:05:00 000",409.582,0.856885,2.02279,0.00454438,6063.34,85.2744
"2016-05-02 01:15:00 000",409.764,1.18163,2.03979,0.0101331,6014.62,95.4053
"2016-05-02 01:25:00 000",408.278,0.932444,2.02816,0.00426082,6009.87,95.1702
"2016-05-02 01:35:00 000",408.263,0.917508,2.03238,0.00600877,5918.01,93.6363
"2016-05-02 01:45:00 000",408.284,0.938913,2.03413,0.00494651,5887.38,87.2212
"2016-05-02 01:55:00 000",408.673,0.862894,2.03391,0.00529414,5869.81,90.0103
"2016-05-02 02:05:00 000",408.904,1.63994,2.03574,0.0126102,5864.01,114.662
"2016-05-02 02:15:00 000",407.010,0.808155,2.04163,0.00491254,6018.03,112.443
"2016-05-02 02:25:00 000",408.362,1.32733,2.04489,0.00545298,6104.86,120.774
"2016-05-02 02:35:00 000",409.506,1.00852,2.05634,0.00716647,6278.04,118.827
"2016-05-02 02:45:00 000",408.118,1.41539,2.05514,0.0118868,6382.25,112.994
"2016-05-02 02:55:00 000",407.498,0.856319,2.07890,0.00468087,6440.54,109.531
"2016-05-02 03:05:00 000",407.636,0.865533,2.07716,0.00514659,6468.76,104.003
"2016-05-02 03:15:00 000",410.029,2.64990,2.08825,0.0155246,6419.13,92.2975
"2016-05-02 03:25:00 000",409.037,2.55288,2.07927,0.0123058,6443.54,104.413
"2016-05-02 03:35:00 000",407.866,1.09075,2.07504,0.0127042,6335.15,93.9523
"2016-05-02 03:45:00 000",413.025,2.25613,2.10763,0.0101972,6407.57,111.618
"2016-05-02 03:55:00 000",412.621,2.35763,2.10558,0.0100939,6459.59,116.056
"2016-05-02 04:05:00 000",413.773,1.92500,2.11301,0.00662907,6523.83,115.923
"2016-05-02 04:15:00 000",411.382,3.61891,2.10184,0.0123038,6331.46,118.812
"2016-05-02 04:25:00 000",417.439,0.884616,2.11778,0.00413373,6507.97,108.607
"2016-05-02 04:35:00 000",416.790,0.833810,2.11927,0.00429104,6555.38,90.6257
"2016-05-02 04:45:00 000",417.852,0.917472,2.11961,0.00527560,6598.21,88.0464
"2016-05-02 04:55:00 000",421.189,1.71568,2.15157,0.0179446,6609.08,89.6559
"2016-05-02 05:05:00 000",425.272,2.33468,2.19408,0.0283101,6576.76,96.0471
"2016-05-02 05:15:00 000",422.643,1.64809,2.20395,0.0139687,6539.80,98.4537
"2016-05-02 05:25:00 000",421.438,1.07615,2.20836,0.00578164,6427.61,101.927
"2016-05-02 05:35:00 000",420.386,0.930742,2.16619,0.0445758,6325.83,108.850
"2016-05-02 05:45:00 000",421.046,1.12593,2.12095,0.0158464,6398.32,110.141
"2016-05-02 05:55:00 000",424.497,2.22499,2.11748,0.0124589,6304.41,108.155
"2016-05-02 06:05:00 000",426.587,2.21708,2.20394,0.0250952,6393.35,101.019
"2016-05-02 06:15:00 000",428.541,2.81920,2.24407,0.0366670,6418.98,137.172
"2016-05-02 06:25:00 000",430.671,5.23864,2.24049,0.0307860,6523.82,190.370
"2016-05-02 06:35:00 000",436.095,1.29448,2.22565,0.00809495,6803.82,108.231
"2016-05-02 06:45:00 000",435.697,1.25663,2.24698,0.0130677,6643.12,139.832
"2016-05-02 06:55:00 000",432.330,1.56943,2.27444,0.00851814,6366.59,137.624
"2016-05-02 07:05:00 000",430.314,1.42551,2.24777,0.0164018,6205.43,110.256
"2016-05-02 07:15:00 000",429.294,1.58787,2.18831,0.0175952,6370.81,125.311
"2016-05-02 07:25:00 000",425.379,1.70115,2.16990,0.0143972,6720.80,154.377
"2016-05-02 07:35:00 000",421.399,1.96567,2.14449,0.0160617,6772.14,107.399
"2016-05-02 07:45:00 000",418.014,2.04554,2.11393,0.0294874,6711.85,107.491
"2016-05-02 07:55:00 000",416.931,1.03521,2.10746,0.00936234,6781.32,105.245
"2016-05-02 08:05:00 000",414.357,1.13183,2.09197,0.00663603,6894.53,106.379
"2016-05-02 08:15:00 000",412.635,1.05319,2.07606,0.00849695,6959.20,115.305
"2016-05-02 08:25:00 000",409.585,1.68146,2.05308,0.0101037,7127.29,108.979
"2016-05-02 08:35:00 000",405.174,1.98885,2.02691,0.0136840,7242.34,107.706
"2016-05-02 08:45:00 000",401.987,1.38242,2.00123,0.0100907,7337.97,97.1503
"2016-05-02 08:55:00 000",404.331,1.22460,2.02083,0.00831815,7367.72,99.3532
"2016-05-02 09:05:00 000",405.701,0.882589,2.03344,0.00773706,7377.90,110.472
"2016-05-02 09:15:00 000",405.342,0.995970,2.04722,0.00701374,7330.32,145.963
"2016-05-02 09:25:00 000",405.360,0.916113,2.05538,0.00808210,7499.80,141.805
"2016-05-02 09:35:00 000",405.658,1.17083,2.07019,0.00955534,7584.06,170.817
"2016-05-02 09:45:00 000",404.686,0.901661,2.05966,0.00550807,7419.13,104.476
"2016-05-02 09:55:00 000",404.648,0.938443,2.06765,0.00844231,7400.67,119.105
"2016-05-02 10:05:00 000",404.425,1.24281,2.09230,0.00695840,7741.82,100.852
"2016-05-02 10:15:00 000",404.268,1.33855,2.08334,0.0112067,7749.29,158.952
"2016-05-02 10:25:00 000",402.224,1.00038,2.05319,0.0100002,7217.86,164.527
"2016-05-02 10:35:00 000",400.643,0.978483,2.03784,0.0110003,7159.75,200.712
"2016-05-02 10:45:00 000",399.653,1.28174,2.03447,0.0194329,7328.77,307.587
"2016-05-02 10:55:00 000",396.967,1.20695,1.97792,0.0214025,6266.27,508.272
"2016-05-02 11:05:00 000",395.937,0.794120,1.95643,0.00690407,5752.11,193.632
"2016-05-02 11:15:00 000",396.136,0.875664,1.95189,0.00411382,5410.44,147.393
"2016-05-02 11:25:00 000",396.326,0.863180,1.95496,0.00451558,5452.72,81.9900
"2016-05-02 11:35:00 000",396.102,0.837784,1.95545,0.00393872,5584.62,94.9810
"2016-05-02 11:45:00 000",396.297,0.959556,1.98195,0.0239608,6526.94,756.425
"2016-05-02 11:55:00 000",396.453,0.932870,2.00167,0.00643856,7309.71,227.582
"2016-05-02 12:05:00 000",396.465,0.932997,1.99933,0.00488436,7418.32,137.477
"2016-05-02 12:15:00 000",395.548,0.781943,1.99845,0.00438527,7609.27,126.491
"2016-05-02 12:25:00 000",396.524,1.31783,2.00067,0.00662424,7519.58,86.5582
"2016-05-02 12:35:00 000",397.855,0.831584,2.00678,0.00435863,7567.19,86.7128
"2016-05-02 12:45:00 000",398.390,1.01617,2.00827,0.00417164,7617.66,70.1533
"2016-05-02 12:55:00 000",399.881,1.57112,2.01246,0.00481805,7649.76,75.2672
"2016-05-02 13:05:00 000",400.598,0.928806,2.01025,0.00411182,7846.70,134.912
"2016-05-02 13:15:00 000",400.983,1.22890,2.00821,0.00370308,7779.99,86.5127
"2016-05-02 13:25:00 000",402.905,2.65567,2.00892,0.00444221,7808.93,78.7251
"2016-05-02 13:35:00 000",404.907,1.55408,2.00941,0.00379027,7772.59,70.0046
"2016-05-02 13:45:00 000",406.778,2.06071,2.00360,0.00461887,7828.76,131.750
"2016-05-02 13:55:00 000",405.766,1.36366,2.00309,0.00378391,7865.93,111.767
"2016-05-02 14:05:00 000",404.418,2.14255,2.00348,0.00386802,7956.06,123.193
"2016-05-02 14:15:00 000",404.782,1.53655,2.00546,0.00378554,7959.15,133.211
"2016-05-02 14:25:00 000",404.582,1.25531,2.00677,0.00363676,7973.91,109.429
"2016-05-02 14:35:00 000",402.872,1.88398,2.01209,0.00622509,8005.54,77.1625
"2016-05-02 14:45:00 000",399.226,1.00198,2.02049,0.00670342,7884.48,80.9278
"2016-05-02 14:55:00 000",397.909,2.30654,2.02422,0.00987504,7776.92,82.3171
"2016-05-02 15:05:00 000",396.354,0.803871,2.01244,0.00471802,7647.00,110.527
"2016-05-02 15:15:00 000",395.587,0.763726,2.01759,0.00380090,8098.53,100.971
"2016-05-02 15:25:00 000",395.754,0.921682,2.01348,0.00357871,8039.64,140.222
"2016-05-02 15:35:00 000",395.882,0.897333,2.01082,0.00372300,7991.57,126.963
"2016-05-02 15:45:00 000",396.329,0.775893,2.00856,0.00408023,7854.48,85.0800
"2016-05-02 15:55:00 000",395.918,0.779139,2.00985,0.00392260,8091.86,106.666
"2016-05-02 16:05:00 000",395.867,0.824856,2.00639,0.00403534,8011.28,88.9124
"2016-05-02 16:15:00 000",395.351,0.871419,2.00062,0.00408696,7952.84,95.1741
"2016-05-02 16:25:00 000",394.609,0.864107,1.99959,0.00393141,8156.73,80.4208
"2016-05-02 16:35:00 000",394.940,0.823788,1.99433,0.00406170,7903.00,100.950
"2016-05-02 16:45:00 000",394.749,0.781405,1.99180,0.00376785,7856.50,78.3371
"2016-05-02 16:55:00 000",394.469,0.817466,1.99398,0.00531991,7940.27,109.033
"2016-05-02 17:05:00 000",393.817,0.867865,2.00069,0.00386265,8286.83,122.117
"2016-05-02 17:15:00 000",393.598,0.808273,2.00122,0.00413016,8494.58,78.8360
"2016-05-02 17:25:00 000",393.383,0.844071,1.99669,0.00501087,8531.84,94.6262
"2016-05-02 17:35:00 000",392.955,0.856012,1.99295,0.00425526,8324.73,128.139
"2016-05-02 17:45:00 000",392.760,0.813766,1.99218,0.00424610,8389.09,78.4900
"2016-05-02 17:55:00 000",392.549,0.894017,1.99256,0.00434724,8437.04,73.2915
"2016-05-02 18:05:00 000",392.652,0.923159,1.99424,0.00490827,8493.87,71.1536
"2016-05-02 18:15:00 000",393.948,1.22262,2.00136,0.00509379,8562.83,75.0405
"2016-05-02 18:25:00 000",396.058,1.65849,2.00331,0.0127600,8433.85,174.414
"2016-05-02 18:35:00 000",398.459,1.79795,2.00006,0.00747165,8257.96,120.648
"2016-05-02 18:45:00 000",397.515,1.62702,2.02500,0.0231119,8000.26,254.169
"2016-05-02 18:55:00 000",399.579,2.68412,2.04562,0.0308857,7789.80,183.065
"2016-05-02 19:05:00 000",396.443,1.25838,2.05222,0.0372583,7670.19,205.759
"2016-05-02 19:15:00 000",394.237,0.968784,1.98431,0.00875055,7244.45,227.660
"2016-05-02 19:25:00 000",394.066,0.950949,1.97371,0.00745134,6670.17,242.672
"2016-05-02 19:35:00 000",393.387,0.884165,1.97532,0.00701271,6654.63,229.958
"2016-05-02 19:45:00 000",394.221,1.07444,1.98035,0.00634976,6858.11,216.448
"2016-05-02 19:55:00 000",395.713,1.06633,1.98175,0.00669233,7025.01,202.208
"2016-05-02 20:05:00 000",394.597,0.893511,1.99156,0.00781712,7179.61,227.007
"2016-05-02 20:15:00 000",394.578,0.859682,1.99668,0.00643025,7066.63,208.617
"2016-05-02 20:25:00 000",394.987,0.862063,2.00173,0.00745985,7166.67,203.772
"2016-05-02 20:35:00 000",395.603,1.03627,2.00683,0.00941876,6947.16,212.745
"2016-05-02 20:45:00 000",396.140,1.02721,2.01366,0.0188136,6774.94,422.194
"2016-05-02 20:55:00 000",397.264,1.35770,2.04026,0.0151510,7038.76,210.892
"2016-05-02 21:05:00 000",397.363,1.07101,2.02167,0.00702115,6775.06,226.724
"2016-05-02 21:15:00 000",398.373,0.966562,2.01700,0.00892701,6320.73,233.210
"2016-05-02 21:25:00 000",398.920,1.14262,1.99047,0.0169112,5705.10,396.626
"2016-05-02 21:35:00 000",397.943,1.21372,1.98204,0.0104248,5482.56,197.678
"2016-05-02 21:45:00 000",398.451,1.02918,1.99949,0.00816828,5700.24,178.372
"2016-05-02 21:55:00 000",403.525,2.03854,2.01929,0.0107293,6143.88,237.119
"2016-05-02 22:05:00 000",404.222,1.44608,2.01200,0.00836639,6222.76,213.536
"2016-05-02 22:15:00 000",403.668,1.14511,2.01110,0.00714958,6158.99,168.524
"2016-05-02 22:25:00 000",403.199,1.27456,2.00961,0.00771901,6154.84,177.141
"2016-05-02 22:35:00 000",402.630,1.04099,2.00342,0.00583947,6232.42,159.381
"2016-05-02 22:45:00 000",403.452,0.917054,2.00577,0.00739864,6453.52,166.484
"2016-05-02 22:55:00 000",406.094,1.44871,2.01836,0.00696520,6650.73,170.191
"2016-05-02 23:05:00 000",407.541,1.21356,2.06847,0.0240851,6825.42,158.100
"2016-05-02 23:15:00 000",407.996,1.19605,2.10499,0.0249204,7062.86,163.783
"2016-05-02 23:25:00 000",407.504,1.15891,2.08020,0.0365650,7115.55,147.104
"2016-05-02 23:35:00 000",406.853,0.968345,2.02906,0.0106998,7306.78,148.120
"2016-05-02 23:45:00 000",406.920,0.882913,2.04449,0.0119840,7523.11,156.391
"2016-05-02 23:55:00 000",407.100,0.865046,2.05469,0.0155781,7768.06,165.766
"2016-05-03 00:05:00 000",406.676,1.05117,2.06810,0.0188211,8113.26,157.188
"2016-05-03 00:15:00 000",407.326,0.913143,2.05025,0.0132562,7983.01,144.172
"2016-05-03 00:25:00 000",408.031,0.953757,2.06011,0.0151816,8107.78,144.474
"2016-05-03 00:35:00 000",405.753,1.75072,2.02879,0.0219462,8413.57,203.865
"2016-05-03 00:45:00 000",406.082,1.01411,2.03220,0.0144294,8598.56,124.708
"2016-05-03 00:55:00 000",405.887,1.16618,2.02039,0.0144148,8755.64,144.314
"2016-05-03 01:05:00 000",405.693,0.956803,2.02067,0.0111200,8852.22,129.249
"2016-05-03 01:15:00 000",406.518,1.00311,2.02231,0.00904458,8894.58,120.955
"2016-05-03 01:25:00 000",407.937,0.869255,2.01797,0.00862532,8894.31,119.545
"2016-05-03 01:35:00 000",408.318,1.01634,2.01256,0.00979048,8936.64,127.267
"2016-05-03 01:45:00 000",408.909,1.07344,2.00221,0.00836242,9034.34,122.989
"2016-05-03 01:55:00 000",409.030,1.13602,1.99269,0.00624382,9088.93,119.354
"2016-05-03 02:05:00 000",408.848,1.15135,1.98930,0.00863618,8947.54,117.110